Location: Newark
(50.0306°N, 2.3272°E)
Time: 18:14:13
(UTC+00:00)

A-11 Canister half - Visible Passes

Search period start: 15 December 2019 00:00
Search period end: 25 December 2019 00:00
Orbit: 1515 x 1684 km, 47.2° (Epoch: 14 December)

Date Brightness Start Highest point End Pass type
(mag) Time Alt. Az. Time Alt. Az. Time Alt. Az.
15 Dec 10.4 16:26:31 10° WNW 16:35:42 44° SW 16:45:04 10° SSE visible
15 Dec 11.4 18:33:23 10° W 18:38:42 16° SW 18:44:04 10° SSW visible
16 Dec 11.5 18:10:09 10° W 18:15:54 17° SW 18:21:43 10° SSW visible
17 Dec 11.5 17:46:57 10° W 17:53:05 18° SW 17:59:18 10° SSW visible
18 Dec 11.5 17:23:49 10° W 17:30:17 20° SW 17:36:50 10° S visible
19 Dec 11.5 17:00:42 10° W 17:07:28 21° SW 17:14:20 10° S visible
20 Dec 11.6 16:37:37 10° W 16:44:39 22° SW 16:51:47 10° S visible
21 Dec 11.6 16:14:33 10° W 16:21:49 24° SW 16:29:13 10° S visible
24 Dec 11.3 06:49:58 10° S 06:57:08 26° SE 07:04:26 10° E visible
